[[{"header":{"parameterUnit":"m.s-1","parameterCategory":1,"la1":30.2991,"la2":30.254,"lo1":-89.0895,"lo2":-89.0444,"dy":0.0017,"dx":0.0017,"nx":28,"ny":28,"refTime":"2024-12-15T09:00:00:Z","depth":0,"parameterNumber":2,"parameterNumberName":"U-component_of_WINDS"},"data":[0,0,0,0,0,0,0,0,0,0,0,0,0,0,0,0,0,0,0,0,0,0,0,0,0,0,0,0,0,0,0,0,0,0,0,0,0,0,0,0,0,0,0,0,0,0,0,0,0,0,0,0,0,0,0,0,0,0,-3.8703,-3.8703,0,-3.8709,-3.8709,-3.8709,-3.8615,-3.8613,-3.861,-3.8608,-3.8616,-3.8619,-3.8621,0,0,0,0,0,0,0,0,0,0,0,0,0,-3.8616,-3.8618,-3.8703,-3.8703,-3.8703,-3.8709,-3.8709,-3.8709,-3.8616,-3.8613,-3.861,-3.8607,-3.8615,-3.8618,-3.8621,0,0,0,0,0,0,0,0,0,0,0,0,0,-3.8641,-3.8619,-3.8703,-3.8658,-3.8653,-3.8709,-3.8709,-3.8709,-3.8616,-3.8613,-3.8609,-3.8605,-3.8614,-3.8618,-3.8622,-3.8722,0,0,-3.8634,-3.8635,0,0,0,0,0,0,0,0,-3.864,-3.8644,-3.8664,-3.8661,-3.8656,-3.8657,-3.8681,-3.8713,-3.8617,-3.8631,-3.8608,-3.8603,-3.8633,-3.8635,-3.8644,-3.8722,-3.8722,-3.8634,-3.8636,-3.8638,-3.8639,0,0,0,0,0,0,0,-3.8638,-3.8644,-3.8705,-3.8665,-3.866,-3.8638,-3.8637,-3.8686,-3.8653,-3.8629,-3.8622,-3.8624,-3.863,-3.8641,-3.8644,-3.8722,-3.8634,-3.8637,-3.864,-3.8641,-3.8884,-3.8888,0,0,0,0,0,0,-3.8642,-3.8643,-3.8705,-3.8705,-3.8638,-3.8643,-3.8642,-3.8661,-3.8652,-3.8647,-3.8627,-3.862,-3.8636,-3.864,-3.8644,-3.8761,-3.8638,-3.8641,-3.8644,-3.888,-3.8885,-3.8889,0,0,0,0,0,0,-3.8641,-3.8649,-3.8705,-3.8672,-3.8678,-3.8648,-3.867,-3.8663,-3.8674,-3.8651,-3.8645,-3.8644,-3.8633,-3.8639,-3.8703,-3.876,-3.8643,-3.8647,-3.8875,-3.8881,-3.8887,-3.8996,0,0,0,0,0,0,-3.8638,-3.8649,-3.8685,-3.8674,-3.868,-3.8763,-3.8674,-3.8666,-3.868,-3.867,-3.8665,-3.8661,-3.8631,-3.8698,-3.8707,-3.8763,-3.865,-3.887,-3.8878,-3.8885,-3.8987,-3.9005,-3.902,0,0,0,0,0,-3.8636,-3.8716,-3.8688,-3.8696,-3.8725,-3.8767,-3.877,-3.8733,-3.8685,-3.8722,-3.8708,-3.8661,-3.8753,-3.8705,-3.8715,-3.8773,-3.8866,-3.8876,-3.8885,-3.898,-3.9002,-3.902,0,0,0,0,0,0,-3.8735,-3.8713,-3.8682,-3.876,-3.8766,-3.8751,-3.8796,-3.8758,-3.8778,-3.8768,-3.8722,-3.8722,-3.8794,-3.879,-3.8738,-3.887,-3.8801,-3.8813,-3.887,-3.8891,-3.8907,-3.8906,-3.8653,0,0,0,0,0,-3.8766,-3.8801,-3.878,-3.8852,-3.8856,-3.8827,-3.8843,-3.8814,-3.8819,-3.8821,-3.8811,-3.8818,-3.8848,-3.8869,-3.8896,-3.8986,-3.8985,-3.9031,-3.9048,-3.9062,-3.9072,-3.9122,-3.9142,-3.892,-3.892,-3.892,0,0,-3.883,-3.8823,-3.8848,-3.8872,-3.8873,-3.8911,-3.8829,-3.8872,-3.8901,-3.8828,-3.8888,-3.8882,-3.8886,-3.8965,-3.8999,-3.8964,-3.9134,-3.9074,-3.9085,-3.9088,-3.9133,-3.9154,-3.9173,-3.8926,-3.8925,-3.8924,0,0,-3.8967,-3.8965,-3.9024,-3.9028,-3.903,-3.901,-3.9025,-3.9016,-3.9008,-3.9068,-3.9015,-3.9049,-3.9101,-3.9107,-3.9117,-3.9259,-3.9217,-3.9269,-3.9356,-3.9405,-3.9422,-3.9438,-3.9489,-3.9508,-3.928,-3.928,-3.9281,0,-3.9047,-3.9101,-3.906,-3.9108,-3.9121,-3.9056,-3.9117,-3.9123,-3.9134,-3.9145,-3.9105,-3.9172,-3.917,-3.925,-3.9285,-3.9295,-3.9311,-3.9269,-3.9423,-3.9438,-3.9452,-3.95,-3.952,-3.9287,-3.9286,-3.9285,-3.9285,0,-3.92,-3.9239,-3.9287,-3.93,-3.9318,-3.9372,-3.9341,-3.9365,-3.9335,-3.932,-3.9383,-3.9379,-3.9404,-3.9421,-3.9393,-3.9498,-3.9476,-3.9431,-3.936,-3.948,-3.9525,-3.9543,-3.9296,-3.9294,-3.9292,-3.929,0,0,-3.9398,-3.9388,-3.9407,-3.9412,-3.9412,-3.9441,-3.9494,-3.9518,-3.954,-3.9551,-3.9594,-3.9642,-3.96,-3.9612,-3.9584,-3.9626,-3.974,-3.9576,-3.9575,-3.9607,-3.9857,-3.9891,-3.9913,-3.9713,-3.9716,-3.9719,-3.9857,0,-3.9531,-3.9619,-3.9584,-3.9675,-3.9711,-3.9652,-3.9698,-3.9703,-3.9691,-3.9721,-3.9707,-3.9742,-3.9684,-3.9691,-3.973,-3.9718,-3.979,-3.9708,-3.9754,-3.9756,-3.9754,-3.9937,-3.9973,-4.0103,-3.9874,-3.9877,-3.9879,0,-3.9698,-3.9716,-3.981,-3.9805,-3.9818,-3.986,-3.9881,-3.991,-3.9915,-3.9904,-3.9918,-3.9881,-3.9933,-3.9864,-3.9936,-3.9881,-3.9898,-3.9895,-3.99,-3.9902,-3.9825,-3.9945,-4.0144,-4.0164,-3.9906,-3.9904,-3.9902,0,-3.9834,-3.9881,-3.9944,-3.9951,-3.9946,-3.9977,-3.9976,-3.9978,-3.9995,-4.0014,-4.0025,-4.005,-4.0064,-4.0085,-4.0056,-4.0008,-4.0134,-4.0061,-4.0126,-4.0127,-4.0155,-4.0153,-4.036,-4.0166,-4.0166,-4.0166,-4.0165,0,-3.9986,-4.0046,-4.0005,-4.0044,-4.011,-4.0071,-4.0139,-4.0132,-4.0134,-4.0172,-4.0123,-4.0159,-4.0119,-4.0153,-4.0131,-4.0195,-4.0202,-4.0195,-4.0188,-4.0199,-4.02,-4.0209,-4.02,-4.0171,-4.017,-4.0169,-4.0168,0,-4.0148,-4.0123,-4.0188,-4.0178,-4.0177,-4.0227,-4.0219,-4.0255,-4.024,-4.0288,-4.0298,-4.0274,-4.0311,-4.0285,-4.0322,-4.0308,-4.0392,-4.0373,-4.039,-4.0385,-4.0452,-4.0446,-4.0671,-4.0699,-4.0488,-4.049,-4.0491,0,-4.0247,-4.0292,-4.0287,-4.0309,-4.0311,-4.0346,-4.0364,-4.0328,-4.0349,-4.036,-4.0396,-4.0428,-4.0452,-4.0514,-4.0502,-4.053,-4.0511,-4.0589,-4.0515,-4.0525,-4.0513,-4.0511,-4.0516,-4.0603,-4.0606,-4.0608,-4.0609,0,-4.0425,-4.041,-4.0437,-4.0461,-4.0484,-4.0501,-4.0514,-4.0535,-4.0499,-4.0525,-4.0562,-4.0581,-4.0619,-4.0652,-4.0676,-4.0677,-4.0638,-4.0633,-4.0649,-4.0661,-4.0669,-4.0666,-4.043,-4.0627,-4.0626,-4.0624,-4.0623,-4.0623,-4.0558,-4.0596,-4.0599,-4.0631,-4.0638,-4.0652,-4.0686,-4.0675,-4.0705,-4.0733,-4.0711,-4.0755,-4.0762,-4.079,-4.0796,-4.0831,-4.08,-4.0824,-4.083,-4.0837,-4.0846,-4.0664,-4.0836,-4.0835,-4.0835,-4.0834,-4.0834,0,-4.0733,-4.0733,-4.0763,-4.0784,-4.081,-4.0771,-4.0784,-4.0809,-4.0848,-4.0857,-4.0882,-4.0926,-4.0959,-4.095,-4.0979,-4.101,-4.0993,-4.1019,-4.1016,-4.1017,-4.0872,-4.0855,-4.1032,-4.1032,-4.1032,-4.1032,-4.1032,-4.1032,-4.0828,-4.089,-4.0877,-4.0943,-4.0942,-4.0985,-4.0996,-4.1009,-4.1016,-4.1067,-4.1094,-4.1088,-4.109,-4.112,-4.1149,-4.1146,-4.1159,-4.1192,-4.1182,-4.1047,-4.1027,-4.1009,-4.0992,-4.1195,-4.1195,-4.1324,-4.1325,-4.1326]},{"header":{"parameterUnit":"m.s-1","parameterCategory":1,"la1":30.2991,"la2":30.254,"lo1":-89.0895,"lo2":-89.0444,"dy":0.0017,"dx":0.0017,"nx":28,"ny":28,"refTime":"2024-12-15T09:00:00:Z","depth":0,"parameterNumber":3,"parameterNumberName":"V-component_of_WINDS"},"data":[0,0,0,0,0,0,0,0,0,0,0,0,0,0,0,0,0,0,0,0,0,0,0,0,0,0,0,0,0,0,0,0,0,0,0,0,0,0,0,0,0,0,0,0,0,0,0,0,0,0,0,0,0,0,0,0,0,0,-0.6566,-0.6566,0,-0.6608,-0.6609,-0.6609,-0.6601,-0.6601,-0.66,-0.6599,-0.6643,-0.6645,-0.6647,0,0,0,0,0,0,0,0,0,0,0,0,0,-0.6477,-0.6479,-0.6566,-0.6566,-0.6567,-0.6608,-0.6609,-0.6609,-0.6601,-0.6601,-0.66,-0.6599,-0.6643,-0.6645,-0.6647,0,0,0,0,0,0,0,0,0,0,0,0,0,-0.6517,-0.6479,-0.6566,-0.6568,-0.6568,-0.6608,-0.6609,-0.661,-0.6602,-0.6601,-0.6599,-0.6598,-0.6642,-0.6645,-0.6647,-0.6688,0,0,-0.6656,-0.6657,0,0,0,0,0,0,0,0,-0.6515,-0.652,-0.6567,-0.6568,-0.6569,-0.6598,-0.6594,-0.6636,-0.6602,-0.6589,-0.6599,-0.6598,-0.6629,-0.6633,-0.6644,-0.669,-0.6692,-0.6656,-0.6658,-0.6659,-0.666,0,0,0,0,0,0,0,-0.6512,-0.6518,-0.6583,-0.6568,-0.6569,-0.6566,-0.6571,-0.6602,-0.6615,-0.659,-0.659,-0.6595,-0.6629,-0.6641,-0.6645,-0.6692,-0.6656,-0.6659,-0.666,-0.6662,-0.6772,-0.6773,0,0,0,0,0,0,-0.6509,-0.6516,-0.6581,-0.6584,-0.6538,-0.6569,-0.6574,-0.659,-0.6615,-0.6617,-0.6596,-0.6594,-0.6637,-0.6641,-0.6646,-0.6694,-0.6659,-0.6662,-0.6663,-0.6771,-0.6772,-0.6774,0,0,0,0,0,0,-0.6507,-0.6514,-0.658,-0.655,-0.6558,-0.6572,-0.659,-0.6591,-0.6603,-0.6619,-0.6621,-0.6605,-0.6636,-0.6642,-0.6677,-0.6695,-0.6663,-0.6666,-0.6769,-0.6771,-0.6773,-0.6791,0,0,0,0,0,0,-0.6504,-0.6514,-0.653,-0.655,-0.656,-0.661,-0.6591,-0.6593,-0.6608,-0.6606,-0.6628,-0.6631,-0.6635,-0.6673,-0.668,-0.6699,-0.6668,-0.6768,-0.677,-0.6772,-0.6789,-0.6793,-0.6797,0,0,0,0,0,-0.6501,-0.6533,-0.6531,-0.6538,-0.658,-0.6611,-0.6617,-0.6621,-0.6609,-0.6625,-0.6635,-0.663,-0.6692,-0.6676,-0.6684,-0.6704,-0.6767,-0.6769,-0.6772,-0.6787,-0.6792,-0.6797,0,0,0,0,0,0,-0.6515,-0.6536,-0.6533,-0.6573,-0.659,-0.661,-0.663,-0.6627,-0.6648,-0.6646,-0.6651,-0.6656,-0.6691,-0.6701,-0.6683,-0.6744,-0.6728,-0.6732,-0.6736,-0.6741,-0.6745,-0.6742,-0.667,0,0,0,0,0,-0.6523,-0.6547,-0.6564,-0.6597,-0.6606,-0.6616,-0.663,-0.6632,-0.665,-0.6658,-0.667,-0.6688,-0.6711,-0.6727,-0.6749,-0.679,-0.6794,-0.6807,-0.6811,-0.6815,-0.6818,-0.6839,-0.6845,-0.6783,-0.6783,-0.6783,0,0,-0.6539,-0.6554,-0.6569,-0.6601,-0.6614,-0.6638,-0.6623,-0.665,-0.6667,-0.6662,-0.6695,-0.6705,-0.6725,-0.6763,-0.678,-0.6772,-0.6836,-0.6818,-0.6821,-0.6823,-0.6843,-0.6849,-0.6854,-0.6785,-0.6784,-0.6784,0,0,-0.6581,-0.6595,-0.6624,-0.6637,-0.6658,-0.6664,-0.6671,-0.669,-0.6696,-0.673,-0.6726,-0.6747,-0.6788,-0.6802,-0.6814,-0.6859,-0.6855,-0.6866,-0.6888,-0.6908,-0.6913,-0.6918,-0.6933,-0.6939,-0.687,-0.687,-0.687,0,-0.6599,-0.6636,-0.6639,-0.6666,-0.668,-0.6675,-0.6704,-0.6717,-0.6743,-0.6753,-0.6744,-0.6793,-0.6807,-0.6847,-0.6858,-0.6868,-0.6876,-0.6864,-0.6912,-0.6917,-0.6921,-0.6936,-0.6942,-0.6871,-0.6871,-0.6871,-0.6871,0,-0.6656,-0.6682,-0.6703,-0.6728,-0.6744,-0.6772,-0.6779,-0.6794,-0.6794,-0.6801,-0.6835,-0.685,-0.6875,-0.6885,-0.6885,-0.6925,-0.6919,-0.6911,-0.6895,-0.6928,-0.6942,-0.6948,-0.6873,-0.6873,-0.6872,-0.6872,0,0,-0.671,-0.6736,-0.6743,-0.6754,-0.6775,-0.6795,-0.6821,-0.6845,-0.6858,-0.6876,-0.6899,-0.6932,-0.6924,-0.6938,-0.694,-0.6958,-0.6992,-0.6948,-0.6948,-0.6955,-0.7036,-0.7041,-0.7048,-0.6989,-0.699,-0.6991,-0.7034,0,-0.6754,-0.6802,-0.6805,-0.6848,-0.687,-0.6865,-0.6888,-0.6903,-0.691,-0.693,-0.6938,-0.6961,-0.695,-0.6958,-0.6975,-0.6984,-0.7008,-0.6981,-0.701,-0.7011,-0.7005,-0.7056,-0.7062,-0.7102,-0.7039,-0.704,-0.7041,0,-0.6812,-0.6831,-0.6876,-0.6893,-0.6902,-0.6923,-0.6945,-0.6964,-0.6981,-0.6984,-0.6999,-0.6998,-0.7025,-0.7007,-0.7044,-0.7026,-0.7037,-0.7043,-0.7045,-0.7048,-0.7028,-0.706,-0.7115,-0.712,-0.705,-0.7049,-0.7048,0,-0.6847,-0.6883,-0.6915,-0.6924,-0.6944,-0.6959,-0.6968,-0.6983,-0.6997,-0.7015,-0.7024,-0.7046,-0.7057,-0.7074,-0.7078,-0.7065,-0.7115,-0.7098,-0.7118,-0.7118,-0.713,-0.7129,-0.7187,-0.7137,-0.7137,-0.7137,-0.7137,0,-0.6895,-0.6923,-0.693,-0.6949,-0.698,-0.6982,-0.7012,-0.702,-0.7034,-0.7054,-0.7051,-0.707,-0.7075,-0.7095,-0.7098,-0.7128,-0.7133,-0.7137,-0.7137,-0.7137,-0.7137,-0.7145,-0.7143,-0.7138,-0.7138,-0.7138,-0.7138,0,-0.6939,-0.6945,-0.6979,-0.6994,-0.6999,-0.702,-0.7034,-0.7052,-0.7058,-0.7083,-0.709,-0.7099,-0.7122,-0.7128,-0.7156,-0.7158,-0.7193,-0.7191,-0.7187,-0.7187,-0.7207,-0.7205,-0.7273,-0.7281,-0.7226,-0.7226,-0.7227,0,-0.697,-0.6991,-0.7009,-0.7022,-0.7031,-0.7053,-0.7066,-0.7069,-0.7083,-0.7103,-0.7118,-0.7141,-0.7159,-0.7196,-0.7205,-0.7226,-0.7225,-0.7247,-0.7228,-0.7227,-0.7225,-0.7223,-0.7225,-0.7251,-0.7251,-0.7252,-0.7252,0,-0.7024,-0.7026,-0.7045,-0.7065,-0.7081,-0.7097,-0.7113,-0.7124,-0.7128,-0.7144,-0.7168,-0.7182,-0.7209,-0.7231,-0.7252,-0.7261,-0.7257,-0.7258,-0.7264,-0.7264,-0.726,-0.7262,-0.7197,-0.7256,-0.7256,-0.7256,-0.7255,-0.7255,-0.7063,-0.708,-0.7095,-0.7116,-0.7128,-0.7142,-0.7159,-0.7167,-0.7186,-0.7209,-0.7209,-0.7234,-0.7249,-0.7276,-0.7286,-0.7305,-0.7299,-0.7307,-0.731,-0.7312,-0.7313,-0.7257,-0.7309,-0.7309,-0.7309,-0.7309,-0.7309,0,-0.7116,-0.7125,-0.7144,-0.7165,-0.7182,-0.7176,-0.7192,-0.7207,-0.7229,-0.7242,-0.726,-0.7286,-0.7307,-0.7317,-0.7338,-0.7351,-0.735,-0.7357,-0.7356,-0.7358,-0.7318,-0.7311,-0.7357,-0.7357,-0.7357,-0.7357,-0.7357,-0.7357,-0.7146,-0.7176,-0.7178,-0.7213,-0.7222,-0.7246,-0.7256,-0.7268,-0.7279,-0.7308,-0.7325,-0.7332,-0.7344,-0.7365,-0.7384,-0.7386,-0.7394,-0.7401,-0.7403,-0.7366,-0.7361,-0.7356,-0.7349,-0.7403,-0.7403,-0.7441,-0.7441,-0.7442]}]]